Panama City, FL

10:21 AM CST on December 06, 2016 (GMT -0600)
Drone Runway, Panama City, FL

Weather History for KTDR - February, 2014

Change the Weather History Date:

Tuesday, February 18, 2014

  Actual Average (KECP) Record (KECP)
Temperature  
Mean Temperature 64 °F -  
Max Temperature 72 °F - 74 °F (2014)
Min Temperature 56 °F - 28 °F (2015)
Degree Days  
Heating Degree Days 2    
Cooling Degree Days 0    
Growing Degree Days 14 (Base 50)    
Moisture  
Dew Point 59 °F    
Average Humidity 83    
Maximum Humidity 100    
Minimum Humidity 61    
Precipitation  
Precipitation 0.00 in - 0.69 in (2012)
Month to date precipitation  
Year to date precipitation  
Sea Level Pressure  
Sea Level Pressure 30.17 in    
Wind  
Wind Speed 9 mph (SSW)    
Max Wind Speed 51 mph    
Max Gust Speed 17 mph    
Visibility 11 miles    
Events      
T = Trace of Precipitation, MM = Missing Value Source: NWS Daily Summary

Daily Weather History Graph

Daily Weather History Graph

Search for Another Location

Airport or City:

Trip Planner

Search our weather history database for the weather conditions in past years. The results will help you decide how hot, cold, wet, or windy it might be!

Date:

Astronomy

Feb. 18, 2014 Rise Set
Actual Time 6:19 AM CST 5:33 PM CST
Civil Twilight 5:54 AM CST 5:57 PM CST
Nautical Twilight 5:26 AM CST 6:25 PM CST
Astronomical Twilight 4:59 AM CST 6:53 PM CST
Moon 9:05 PM CST (2/18) 8:09 AM CST (2/18)
Length of Visible Light 12h 02m
Length of Day
11h 13m
Waning Gibbous, 87% of the Moon is Illuminated
Feb 18
Waning Gibbous
Feb 22
Last Quarter
Mar 1
New
Mar 8
First Quarter
Mar 16
Full

Hourly Weather History & Observations

Time (CST) Temp. Dew Point Humidity Pressure Visibility Wind Dir Wind Speed Gust Speed Precip Events Conditions
12:55 AM 59.2 °F 58.1 °F 96% 30.15 in 10.0 mi South 8.1 mph - N/A   Clear
12:56 AM 59.2 °F 58.1 °F 96% 30.17 in 12.0 mi South 8.1 mph - N/A   Clear
1:55 AM 58.6 °F 57.7 °F 97% 30.15 in 10.0 mi SSW 4.6 mph - N/A   Clear
1:56 AM 58.6 °F 57.7 °F 97% 30.16 in 12.0 mi South 4.6 mph - N/A   Clear
2:55 AM 59.2 °F 57.9 °F 96% 30.14 in 10.0 mi SSW 4.6 mph - N/A   Clear
2:56 AM 59.2 °F 57.9 °F 96% 30.15 in 12.0 mi SSW 4.6 mph - N/A   Clear
3:55 AM 58.6 °F 58.1 °F 98% 30.14 in 10.0 mi SSW 4.6 mph - N/A   Clear
3:56 AM 58.6 °F 58.1 °F 98% 30.15 in 12.0 mi SSW 4.6 mph - N/A   Clear
4:55 AM 57.9 °F 57.9 °F 100% 30.15 in 10.0 mi SSW 4.6 mph - N/A   Clear
4:56 AM 57.7 °F 57.9 °F 100% 30.16 in 12.0 mi South 3.5 mph - N/A   Clear
5:55 AM 59.9 °F 58.6 °F 96% 30.17 in 10.0 mi SSW 6.9 mph - N/A   Clear
5:56 AM 59.9 °F 58.6 °F 96% 30.18 in 12.0 mi South 6.9 mph - N/A   Clear
6:21 AM 60.8 °F 59.0 °F 94% 30.17 in 12.0 mi WNW 25.3 mph - N/A   Clear
6:39 AM 60.8 °F 59.0 °F 94% 30.18 in 12.0 mi NNE 50.6 mph - N/A   Clear
6:55 AM 61.7 °F 59.5 °F 93% 30.18 in 10.0 mi North - - N/A   Clear
6:56 AM 61.7 °F 59.5 °F 93% 30.19 in 12.0 mi North - - N/A   Clear
7:31 AM 62.6 °F 60.8 °F 94% 30.19 in 12.0 mi ESE 25.3 mph - N/A   Clear
7:55 AM 64.2 °F 61.0 °F 89% 30.19 in 10.0 mi SSW 5.8 mph - N/A   Clear
7:56 AM 64.2 °F 61.0 °F 89% 30.20 in 12.0 mi SSW 4.6 mph - N/A   Clear
8:55 AM 66.7 °F 61.3 °F 83% 30.21 in 10.0 mi SSW 5.8 mph - N/A   Clear
8:56 AM 66.7 °F 61.3 °F 83% 30.22 in 12.0 mi SSW 5.8 mph - N/A   Clear
9:55 AM 69.6 °F 59.7 °F 71% 30.22 in 10.0 mi South 9.2 mph - N/A   Clear
9:56 AM 69.6 °F 60.1 °F 72% 30.22 in 12.0 mi South 9.2 mph - N/A   Clear
10:45 AM 69.8 °F 60.8 °F 73% 30.22 in 12.0 mi SSW 9.2 mph - N/A   Mostly Cloudy
10:55 AM 69.4 °F 59.9 °F 72% 30.22 in 10.0 mi South 10.4 mph - N/A   Mostly Cloudy
10:56 AM 69.4 °F 59.9 °F 72% 30.22 in 12.0 mi South 10.4 mph - N/A   Mostly Cloudy
11:01 AM 68.0 °F 60.8 °F 78% 30.21 in 12.0 mi South 9.2 mph - N/A   Mostly Cloudy
11:55 AM 71.6 °F 60.1 °F 67% 30.20 in 10.0 mi SSW 8.1 mph - N/A   Mostly Cloudy
11:56 AM 71.6 °F 60.1 °F 67% 30.21 in 12.0 mi SSW 8.1 mph - N/A   Mostly Cloudy
12:01 PM 71.6 °F 59.0 °F 64% 30.19 in 12.0 mi SSW 9.2 mph - N/A   Scattered Clouds
12:10 PM 71.6 °F 60.8 °F 69% 30.19 in 12.0 mi South 10.4 mph - N/A   Mostly Cloudy
12:16 PM 69.8 °F 60.8 °F 73% 30.19 in 12.0 mi South 9.2 mph - N/A   Mostly Cloudy
12:26 PM 71.6 °F 60.8 °F 69% 30.18 in 12.0 mi South 10.4 mph 17.3 mph N/A   Scattered Clouds
12:52 PM 68.0 °F 59.0 °F 73% 30.17 in 12.0 mi SSW 9.2 mph - N/A   Mostly Cloudy
12:55 PM 68.5 °F 58.8 °F 71% 30.17 in 10.0 mi SSW 10.4 mph - N/A   Mostly Cloudy
12:56 PM 68.5 °F 58.8 °F 71% 30.18 in 12.0 mi SSW 10.4 mph - N/A   Mostly Cloudy
1:11 PM 71.6 °F 59.0 °F 64% 30.17 in 12.0 mi SSW 10.4 mph - N/A   Scattered Clouds
1:55 PM 71.2 °F 57.2 °F 61% 30.16 in 10.0 mi SSW 11.5 mph 16.1 mph N/A   Partly Cloudy
1:56 PM 71.2 °F 57.2 °F 61% 30.17 in 12.0 mi SSW 11.5 mph 16.1 mph N/A   Partly Cloudy
2:55 PM 70.0 °F 56.7 °F 63% 30.15 in 10.0 mi SW 9.2 mph - N/A   Partly Cloudy
2:56 PM 70.0 °F 56.7 °F 63% 30.16 in 12.0 mi SSW 8.1 mph - N/A   Partly Cloudy
3:55 PM 69.3 °F 56.1 °F 63% 30.14 in 10.0 mi South 9.2 mph - N/A   Partly Cloudy
3:56 PM 69.3 °F 56.1 °F 63% 30.15 in 12.0 mi South 9.2 mph - N/A   Partly Cloudy
4:55 PM 66.7 °F 58.8 °F 76% 30.14 in 10.0 mi South 5.8 mph - N/A   Partly Cloudy
4:56 PM 66.7 °F 58.6 °F 75% 30.14 in 12.0 mi South 5.8 mph - N/A   Partly Cloudy
5:55 PM 63.1 °F 59.2 °F 87% 30.14 in 10.0 mi South 4.6 mph - N/A   Partly Cloudy
5:56 PM 63.1 °F 59.2 °F 87% 30.15 in 12.0 mi South 4.6 mph - N/A   Partly Cloudy
6:55 PM 62.1 °F 59.5 °F 91% 30.15 in 10.0 mi South 5.8 mph - N/A   Mostly Cloudy
7:55 PM 61.7 °F 58.1 °F 88% 30.14 in 10.0 mi SE 3.5 mph - N/A   Scattered Clouds
7:56 PM 61.7 °F 58.1 °F 88% 30.15 in 12.0 mi SE 3.5 mph - N/A   Scattered Clouds
8:55 PM 60.3 °F 58.6 °F 94% 30.16 in 10.0 mi South 2.3 mph - N/A   Mostly Cloudy
8:56 PM 60.3 °F 58.6 °F 94% 30.17 in 12.0 mi South 2.3 mph - N/A   Mostly Cloudy
9:55 PM 56.8 °F 55.9 °F 97% 30.14 in 10.0 mi South 8.1 mph - N/A   Scattered Clouds
10:55 PM 60.1 °F 56.7 °F 88% 30.14 in 10.0 mi South 5.8 mph - N/A   Partly Cloudy
11:55 PM 57.9 °F 57.6 °F 99% 30.11 in 10.0 mi South 9.2 mph - N/A   Mostly Cloudy
11:56 PM 57.9 °F 57.6 °F 99% 30.12 in 12.0 mi South 9.2 mph - N/A   Mostly Cloudy